This is the latest recevied weather packets stored in our database for station/object AB8Y-13. If no packets are shown the sender has not sent any weather packets the latest 10 day(s).
| Time | Temp. | Humidity | Pressure | Rain* | Wind** | Luminosity | Snow |
|---|---|---|---|---|---|---|---|
| 1777378500 | 15.56° C | 92% | 1005.7 hPa | 0 mm | - | 57 W/m² | - |
| 1777378195 | 15.56° C | 93% | 1005.6 hPa | 0 mm | - | 53 W/m² | - |
| 1777377894 | 15° C | 93% | 1005.5 hPa | 0 mm | - | 68 W/m² | - |
| 1777377593 | 15° C | 93% | 1005.4 hPa | 0 mm | - | 52 W/m² | - |
| 1777377288 | 15° C | 93% | 1005.6 hPa | 0 mm | - | 13 W/m² | - |
| 1777376986 | 15° C | 93% | 1005.5 hPa | 0 mm | - | 25 W/m² | - |
| 1777376683 | 15° C | 93% | 1005.4 hPa | 0 mm | - | 28 W/m² | - |
| 1777376380 | 15° C | 93% | 1005.3 hPa | 0 mm | - | 34 W/m² | - |
| 1777376080 | 15° C | 93% | 1005.3 hPa | 1.27 mm | - | 37 W/m² | - |
| 1777375780 | 15° C | 93% | 1005.3 hPa | 1.27 mm | - | 15 W/m² | - |
| 1777375475 | 15° C | 93% | 1005.2 hPa | 0 mm | - | 12 W/m² | - |
| 1777375172 | 15° C | 93% | 1005 hPa | 0 mm | - | 12 W/m² | - |
| 1777374872 | 15° C | 93% | 1005.2 hPa | 0 mm | - | 9 W/m² | - |
| 1777374568 | 15° C | 92% | 1005.1 hPa | 1.78 mm | - | 11 W/m² | - |
| 1777374265 | 15° C | 92% | 1005.1 hPa | 1.78 mm | - | 5 W/m² | - |
| 1777373961 | 15° C | 91% | 1004.8 hPa | 0 mm | - | 5 W/m² | - |
| 1777373658 | 15° C | 91% | 1004.9 hPa | 0 mm | - | 4 W/m² | - |
| 1777373355 | 15° C | 90% | 1004.6 hPa | 0 mm | - | 2 W/m² | - |
| 1777373050 | 15.56° C | 90% | 1004.9 hPa | 0 mm | - | 2 W/m² | - |
| 1777372746 | 15.56° C | 89% | 1004.6 hPa | 0 mm | - | 1 W/m² | - |
| 1777372445 | 15.56° C | 89% | 1004.5 hPa | 0 mm | - | 1 W/m² | - |
| 1777372143 | 15.56° C | 88% | 1004.4 hPa | 0 mm | - | 1 W/m² | - |
| 1777371840 | 15.56° C | 87% | 1004.2 hPa | 0 mm | - | 0 W/m² | - |
| 1777371536 | 15.56° C | 86% | 1004.1 hPa | 0 mm | - | 0 W/m² | - |
| 1777371233 | 15.56° C | 85% | 1004.2 hPa | 0 mm | - | 0 W/m² | - |
* Rain latest hour (hover to see other rain measurements)
** Current wind speed in m/s (hover to see current wind gust speed)